Location: Pl�tzky
(52.0521°N, 11.8020°E)
Time: 00:51:40
(UTC+00:00)

CZ-4 R/B - Pass Details

Date: 22 November 2019
Orbit: 529 x 601 km, 97.8° (Epoch: 05 December)

Event Time Altitude Azimuth Distance (km) Brightness Sun altitude
Rises 16:58:32 0° 153° (SSE) 2,789 4.8 -15.7°
Reaches altitude 10° 17:00:43 10° 150° (SSE) 1,883 3.9 -16.1°
Maximum altitude 17:04:43 58° 72° (ENE) 667 1.4 -16.7°
Drops below altitude 10° 17:08:40 10° 353° (N) 1,855 4.0 -17.2°
Sets 17:10:48 0° 349° (N) 2,743 4.9 -17.6°
